Weather in Babarykino

Russia / Tomsk District     56°33′06″N   83°36′38″E
temp.,
°C
wind,
m/s
gust,
m/s
humid.,
%
clouds,
%
prec.,
mm/h
press.,
hPa
HPBL,
m
13 may, thu
thu1301:00+11wnw11452 0.0 101410
04:00+9wnw22504 0.0 101319
07:00+11nnw1253100 0.0 101397
10:00+15n3451100 0.0 1013605
13:00+18nw334290 0.0 10131881
16:00+17nnw3239100 0.0 10121916
19:00+14nw676193 0.0 1014860
22:00+9nnw258330 0.0 1015166
14 may, fri
fri1401:00+7nw24875 0.0 101688
04:00+6nw411844 0.0 1017290
07:00+7nw4118280 0.0 1018595
10:00+9nnw685018 0.0 10201116
13:00+12nnw683099 0.0 10211497
16:00+14nw5724100 0.0 10211690
19:00+14nw572778 0.0 10211530
22:00+11w2438100 0.0 1022101
15 may, sat
sat1501:00+11sw41142100 0.1 1020337
04:00+12sw6143950 0.0 1018491
07:00+12wsw61458100 0.3 1018515
10:00+16w6105635 0.2 1017675
13:00+22w6945100 0.2 10161326
16:00+22wsw7104699 0.0 10151047
19:00+25wsw5123969 0.0 10121967
22:00+16wnw378175 1.8 1013161
16 may, sun
sun1601:00+15w2489100 2.7 1012104
04:00+12nw2495100 0.0 101383
07:00+13n2394100 0.0 1014241
10:00+15ne228288 0.4 1015524
13:00+15nne4478100 0.6 1015758
16:00+11ne478842 2.5 1016330
19:00+13ne347146 2.5 1017791
22:00+10ene11875 0.0 101811
17 may, mon
mon1701:00+9ssw229344 0.0 101728
04:00+8ssw389612 0.0 1016172
07:00+10sw51386100 0.0 1014417
10:00+19wsw7145898 0.1 1011880
13:00+26w711388 0.1 10091543
16:00+28wnw7143156 0.0 10083218
19:00+26nw4940100 0.0 10081173
22:00+17ene3675100 0.0 1008114